Time,TemperatureF,DewpointF,PressureIn,WindDirection,WindDirectionDegrees,WindSpeedMPH,WindSpeedGustMPH,Humidity,HourlyPrecipIn,Conditions,Clouds,dailyrainin,SolarRadiationWatts/m^2,SoftwareType,DateUTC
2017-11-18 00:01:00,43.5,28.4,30.28,WNW,285,0.2,2.5,55,0.00,,,0.00,0.00,Weather logger V3.1.,2017-11-18 08:01:00,
2017-11-18 00:07:00,43.0,28.8,30.28,WNW,296,0.9,2.5,57,0.00,,,0.00,0.00,Weather logger V3.1.,2017-11-18 08:07:00,
2017-11-18 00:12:00,42.6,28.9,30.29,NNW,335,0.7,2.5,58,0.00,,,0.00,0.00,Weather logger V3.1.,2017-11-18 08:12:00,
2017-11-18 00:17:00,42.1,29.7,30.28,NW,323,0.0,0.0,61,0.00,,,0.00,0.00,Weather logger V3.1.,2017-11-18 08:17:00,
2017-11-18 00:22:00,41.5,29.1,30.28,West,273,0.0,0.0,61,0.00,,,0.00,0.00,Weather logger V3.1.,2017-11-18 08:22:00,
2017-11-18 00:27:00,41.0,29.3,30.28,West,273,0.0,0.0,63,0.00,,,0.00,0.00,Weather logger V3.1.,2017-11-18 08:27:00,
2017-11-18 00:32:00,40.5,30.0,30.29,West,277,0.0,0.0,66,0.00,,,0.00,0.00,Weather logger V3.1.,2017-11-18 08:32:00,
2017-11-18 00:37:00,39.9,29.8,30.29,West,273,0.0,0.0,67,0.00,,,0.00,0.00,Weather logger V3.1.,2017-11-18 08:37:00,
2017-11-18 00:42:00,39.4,29.7,30.29,WNW,286,0.0,0.0,68,0.00,,,0.00,0.00,Weather logger V3.1.,2017-11-18 08:42:00,
2017-11-18 00:43:00,39.4,29.7,30.29,West,279,0.0,0.0,68,0.00,,,0.00,0.00,Weather logger V3.1.,2017-11-18 08:43:00,
2017-11-18 00:48:00,39.0,29.3,30.28,West,277,0.9,2.5,68,0.00,,,0.00,0.00,Weather logger V3.1.,2017-11-18 08:48:00,
2017-11-18 00:53:00,39.0,29.3,30.28,West,265,1.6,2.5,68,0.00,,,0.00,0.00,Weather logger V3.1.,2017-11-18 08:53:00,
2017-11-18 00:58:00,39.2,28.4,30.29,WNW,287,0.7,2.5,65,0.00,,,0.00,0.00,Weather logger V3.1.,2017-11-18 08:58:00,
2017-11-18 01:03:00,39.6,27.7,30.27,West,273,1.8,2.5,62,0.00,,,0.00,0.00,Weather logger V3.1.,2017-11-18 09:03:00,
2017-11-18 01:08:00,39.9,27.5,30.27,West,269,3.4,4.9,61,0.00,,,0.00,0.00,Weather logger V3.1.,2017-11-18 09:08:00,
2017-11-18 01:13:00,40.5,27.7,30.28,West,278,3.8,4.9,60,0.00,,,0.00,0.00,Weather logger V3.1.,2017-11-18 09:13:00,
2017-11-18 01:18:00,41.0,27.3,30.27,West,271,1.6,2.5,58,0.00,,,0.00,0.00,Weather logger V3.1.,2017-11-18 09:18:00,
2017-11-18 01:23:00,41.4,27.3,30.28,West,269,1.3,2.5,57,0.00,,,0.00,0.00,Weather logger V3.1.,2017-11-18 09:23:00,
2017-11-18 01:28:00,41.5,27.5,30.28,West,265,1.8,2.5,57,0.00,,,0.00,0.00,Weather logger V3.1.,2017-11-18 09:28:00,
2017-11-18 01:33:00,41.7,27.7,30.28,WNW,288,1.3,2.5,57,0.00,,,0.00,0.00,Weather logger V3.1.,2017-11-18 09:33:00,
2017-11-18 01:38:00,41.7,28.0,30.28,West,266,0.0,0.0,58,0.00,,,0.00,0.00,Weather logger V3.1.,2017-11-18 09:38:00,
2017-11-18 01:43:00,41.5,28.2,30.28,NW,313,1.3,2.5,59,0.00,,,0.00,0.00,Weather logger V3.1.,2017-11-18 09:43:00,
2017-11-18 01:48:00,41.2,28.4,30.28,West,271,0.0,0.0,60,0.00,,,0.00,0.00,Weather logger V3.1.,2017-11-18 09:48:00,
2017-11-18 01:53:00,40.8,28.4,30.28,West,272,0.0,0.0,61,0.00,,,0.00,0.00,Weather logger V3.1.,2017-11-18 09:53:00,
2017-11-18 01:59:00,40.5,28.9,30.28,West,273,0.0,0.0,63,0.00,,,0.00,0.00,Weather logger V3.1.,2017-11-18 09:59:00,
2017-11-18 02:04:00,39.9,28.8,30.27,West,275,0.0,0.0,64,0.00,,,0.00,0.00,Weather logger V3.1.,2017-11-18 10:04:00,
2017-11-18 02:09:00,39.2,28.4,30.28,West,272,0.0,0.0,65,0.00,,,0.00,0.00,Weather logger V3.1.,2017-11-18 10:09:00,
2017-11-18 02:14:00,38.8,28.4,30.28,West,269,0.0,0.0,66,0.00,,,0.00,0.00,Weather logger V3.1.,2017-11-18 10:14:00,
2017-11-18 02:19:00,38.5,28.4,30.28,West,271,0.0,0.0,67,0.00,,,0.00,0.00,Weather logger V3.1.,2017-11-18 10:19:00,
2017-11-18 02:24:00,38.1,28.2,30.28,West,269,0.0,0.0,67,0.00,,,0.00,0.00,Weather logger V3.1.,2017-11-18 10:24:00,
2017-11-18 02:29:00,37.9,28.4,30.28,West,267,0.0,0.0,68,0.00,,,0.00,0.00,Weather logger V3.1.,2017-11-18 10:29:00,
2017-11-18 02:34:00,37.9,28.8,30.27,West,264,0.0,0.0,69,0.00,,,0.00,0.00,Weather logger V3.1.,2017-11-18 10:34:00,
2017-11-18 02:39:00,37.9,28.8,30.27,West,268,0.0,0.0,69,0.00,,,0.00,0.00,Weather logger V3.1.,2017-11-18 10:39:00,
2017-11-18 02:44:00,37.8,27.1,30.28,West,267,0.0,0.0,65,0.00,,,0.00,0.00,Weather logger V3.1.,2017-11-18 10:44:00,
2017-11-18 02:49:00,37.8,28.9,30.28,West,264,0.0,0.0,70,0.00,,,0.00,0.00,Weather logger V3.1.,2017-11-18 10:49:00,
2017-11-18 02:54:00,37.6,28.8,30.28,West,263,0.0,0.0,70,0.00,,,0.00,0.00,Weather logger V3.1.,2017-11-18 10:54:00,
2017-11-18 02:59:00,37.8,29.3,30.28,West,260,0.0,0.0,71,0.00,,,0.00,0.00,Weather logger V3.1.,2017-11-18 10:59:00,
2017-11-18 03:04:00,37.8,29.3,30.29,West,261,0.2,2.5,71,0.00,,,0.00,0.00,Weather logger V3.1.,2017-11-18 11:04:00,
2017-11-18 03:09:00,37.8,29.3,30.28,WNW,283,1.3,2.5,71,0.00,,,0.00,0.00,Weather logger V3.1.,2017-11-18 11:09:00,
2017-11-18 03:15:00,37.9,28.4,30.28,West,265,1.3,2.5,68,0.00,,,0.00,0.00,Weather logger V3.1.,2017-11-18 11:15:00,
2017-11-18 03:20:00,38.3,28.0,30.28,West,261,0.7,2.5,66,0.00,,,0.00,0.00,Weather logger V3.1.,2017-11-18 11:20:00,
2017-11-18 03:25:00,38.5,27.7,30.28,West,273,0.7,2.5,65,0.00,,,0.00,0.00,Weather logger V3.1.,2017-11-18 11:25:00,
2017-11-18 03:30:00,38.5,27.7,30.28,WSW,256,0.0,0.0,65,0.00,,,0.00,0.00,Weather logger V3.1.,2017-11-18 11:30:00,
2017-11-18 03:35:00,38.5,27.7,30.28,West,260,0.0,0.0,65,0.00,,,0.00,0.00,Weather logger V3.1.,2017-11-18 11:35:00,
2017-11-18 03:40:00,38.3,28.0,30.28,WSW,251,0.0,0.0,66,0.00,,,0.00,0.00,Weather logger V3.1.,2017-11-18 11:40:00,
2017-11-18 03:45:00,38.1,27.9,30.27,WSW,252,0.0,0.0,66,0.00,,,0.00,0.00,Weather logger V3.1.,2017-11-18 11:45:00,
2017-11-18 03:50:00,37.8,25.9,30.28,WSW,258,0.0,0.0,62,0.00,,,0.00,0.00,Weather logger V3.1.,2017-11-18 11:50:00,
2017-11-18 03:55:00,37.6,27.7,30.28,WSW,255,0.0,0.0,67,0.00,,,0.00,0.00,Weather logger V3.1.,2017-11-18 11:55:00,
2017-11-18 04:00:00,37.2,25.9,30.29,WSW,254,0.0,0.0,63,0.00,,,0.00,0.00,Weather logger V3.1.,2017-11-18 12:00:00,
2017-11-18 04:05:00,37.2,26.2,30.28,WSW,256,0.0,0.0,64,0.00,,,0.00,0.00,Weather logger V3.1.,2017-11-18 12:05:00,
2017-11-18 04:10:00,37.0,27.5,30.28,West,270,0.0,0.0,68,0.00,,,0.00,0.00,Weather logger V3.1.,2017-11-18 12:10:00,
2017-11-18 04:15:00,37.0,27.5,30.27,WSW,258,0.0,0.0,68,0.00,,,0.00,0.00,Weather logger V3.1.,2017-11-18 12:15:00,
2017-11-18 04:20:00,37.0,27.5,30.28,West,280,0.0,0.0,68,0.00,,,0.00,0.00,Weather logger V3.1.,2017-11-18 12:20:00,
2017-11-18 04:25:00,37.0,25.7,30.28,WSW,255,0.2,2.5,63,0.00,,,0.00,0.00,Weather logger V3.1.,2017-11-18 12:25:00,
2017-11-18 04:31:00,37.0,27.1,30.28,West,275,0.7,2.5,67,0.00,,,0.00,0.00,Weather logger V3.1.,2017-11-18 12:31:00,
2017-11-18 04:36:00,37.2,27.3,30.29,West,260,0.9,2.5,67,0.00,,,0.00,0.00,Weather logger V3.1.,2017-11-18 12:36:00,
2017-11-18 04:41:00,37.4,26.8,30.28,West,274,2.2,2.5,65,0.00,,,0.00,0.00,Weather logger V3.1.,2017-11-18 12:41:00,
2017-11-18 04:46:00,37.4,26.4,30.29,West,275,1.3,2.5,64,0.00,,,0.00,0.00,Weather logger V3.1.,2017-11-18 12:46:00,
2017-11-18 04:51:00,37.8,25.9,30.29,WSW,256,0.7,2.5,62,0.00,,,0.00,0.00,Weather logger V3.1.,2017-11-18 12:51:00,
2017-11-18 04:56:00,37.9,25.7,30.29,West,263,0.2,2.5,61,0.00,,,0.00,0.00,Weather logger V3.1.,2017-11-18 12:56:00,
2017-11-18 05:01:00,38.1,25.5,30.28,West,271,2.2,2.5,60,0.00,,,0.00,0.00,Weather logger V3.1.,2017-11-18 13:01:00,
2017-11-18 05:06:00,38.3,25.7,30.28,West,278,0.2,2.5,60,0.00,,,0.00,0.00,Weather logger V3.1.,2017-11-18 13:06:00,
2017-11-18 05:11:00,38.5,25.0,30.29,NW,310,2.5,4.9,58,0.00,,,0.00,0.00,Weather logger V3.1.,2017-11-18 13:11:00,
2017-11-18 05:16:00,38.7,24.8,30.28,West,271,0.0,0.0,57,0.00,,,0.00,0.00,Weather logger V3.1.,2017-11-18 13:16:00,
2017-11-18 05:21:00,38.7,24.8,30.29,West,281,1.6,2.5,57,0.00,,,0.00,0.00,Weather logger V3.1.,2017-11-18 13:21:00,
2017-11-18 05:27:00,38.7,24.8,30.30,West,280,1.8,2.5,57,0.00,,,0.00,0.00,Weather logger V3.1.,2017-11-18 13:27:00,
2017-11-18 05:32:00,38.7,25.2,30.29,West,274,1.3,2.5,58,0.00,,,0.00,0.00,Weather logger V3.1.,2017-11-18 13:32:00,
2017-11-18 05:37:00,38.5,25.0,30.29,WNW,295,2.2,2.5,58,0.00,,,0.00,0.00,Weather logger V3.1.,2017-11-18 13:37:00,
2017-11-18 05:42:00,38.5,25.3,30.29,WNW,302,1.8,2.5,59,0.00,,,0.00,0.00,Weather logger V3.1.,2017-11-18 13:42:00,
2017-11-18 05:47:00,38.3,25.2,30.29,NW,317,1.6,2.5,59,0.00,,,0.00,0.00,Weather logger V3.1.,2017-11-18 13:47:00,
2017-11-18 05:52:00,38.1,23.4,30.29,West,275,0.0,0.0,55,0.00,,,0.00,0.00,Weather logger V3.1.,2017-11-18 13:52:00,
2017-11-18 05:57:00,37.8,23.5,30.29,West,275,0.0,0.0,56,0.00,,,0.00,0.00,Weather logger V3.1.,2017-11-18 13:57:00,
2017-11-18 06:02:00,37.4,23.9,30.29,West,274,0.0,0.0,58,0.00,,,0.00,0.00,Weather logger V3.1.,2017-11-18 14:02:00,
2017-11-18 06:07:00,37.0,24.1,30.30,West,274,0.0,0.0,59,0.00,,,0.00,0.00,Weather logger V3.1.,2017-11-18 14:07:00,
2017-11-18 06:12:00,36.7,24.1,30.30,West,274,0.0,0.0,60,0.00,,,0.00,0.00,Weather logger V3.1.,2017-11-18 14:12:00,
2017-11-18 06:17:00,36.0,23.9,30.29,West,274,0.0,0.0,61,0.00,,,0.00,0.00,Weather logger V3.1.,2017-11-18 14:17:00,
2017-11-18 06:22:00,35.6,23.9,30.30,West,274,0.0,0.0,62,0.00,,,0.00,0.00,Weather logger V3.1.,2017-11-18 14:22:00,
2017-11-18 06:27:00,35.1,24.1,30.30,West,274,0.0,0.0,64,0.00,,,0.00,0.00,Weather logger V3.1.,2017-11-18 14:27:00,
2017-11-18 06:32:00,34.9,24.3,30.30,West,274,0.0,0.0,65,0.00,,,0.00,0.00,Weather logger V3.1.,2017-11-18 14:32:00,
2017-11-18 06:37:00,34.7,24.4,30.31,West,274,0.0,0.0,66,0.00,,,0.00,0.00,Weather logger V3.1.,2017-11-18 14:37:00,
2017-11-18 06:43:00,34.5,24.6,30.30,West,274,0.0,0.0,67,0.00,,,0.00,0.00,Weather logger V3.1.,2017-11-18 14:43:00,
2017-11-18 06:48:00,34.7,24.8,30.30,West,280,0.7,2.5,67,0.00,,,0.00,0.00,Weather logger V3.1.,2017-11-18 14:48:00,
2017-11-18 06:53:00,34.9,25.0,30.30,West,276,0.2,2.5,67,0.00,,,0.00,0.00,Weather logger V3.1.,2017-11-18 14:53:00,
2017-11-18 06:58:00,35.1,24.8,30.31,West,264,0.0,0.0,66,0.00,,,0.00,0.00,Weather logger V3.1.,2017-11-18 14:58:00,
2017-11-18 07:03:00,35.2,24.6,30.31,West,259,0.0,0.0,65,0.00,,,0.00,3.72,Weather logger V3.1.,2017-11-18 15:03:00,
2017-11-18 07:05:00,35.2,24.6,30.31,WSW,258,0.0,0.0,65,0.00,,,0.00,5.89,Weather logger V3.1.,2017-11-18 15:05:00,
2017-11-18 07:10:00,35.4,24.4,30.31,West,276,0.0,0.0,64,0.00,,,0.00,10.85,Weather logger V3.1.,2017-11-18 15:10:00,
2017-11-18 07:15:00,35.8,24.4,30.32,West,263,0.0,0.0,63,0.00,,,0.00,19.27,Weather logger V3.1.,2017-11-18 15:15:00,
2017-11-18 07:20:00,36.0,25.3,30.32,West,269,0.2,2.5,65,0.00,,,0.00,27.17,Weather logger V3.1.,2017-11-18 15:20:00,
2017-11-18 07:25:00,36.3,25.0,30.32,WNW,295,2.9,4.9,63,0.00,,,0.00,27.07,Weather logger V3.1.,2017-11-18 15:25:00,
2017-11-18 07:30:00,36.7,25.0,30.32,WNW,295,2.9,4.9,62,0.00,,,0.00,42.82,Weather logger V3.1.,2017-11-18 15:30:00,
2017-11-18 07:35:00,37.2,24.6,30.32,West,271,2.2,4.9,60,0.00,,,0.00,42.46,Weather logger V3.1.,2017-11-18 15:35:00,
2017-11-18 07:40:00,37.8,23.9,30.33,WNW,294,1.8,2.5,57,0.00,,,0.00,49.70,Weather logger V3.1.,2017-11-18 15:40:00,
2017-11-18 07:45:00,38.1,23.4,30.33,WNW,290,0.0,0.0,55,0.00,,,0.00,48.52,Weather logger V3.1.,2017-11-18 15:45:00,
2017-11-18 07:51:00,38.7,23.5,30.33,NW,324,3.4,4.9,54,0.00,,,0.00,66.11,Weather logger V3.1.,2017-11-18 15:51:00,
2017-11-18 07:56:00,39.2,23.0,30.32,NW,306,2.2,2.5,52,0.00,,,0.00,63.50,Weather logger V3.1.,2017-11-18 15:56:00,
2017-11-18 08:01:00,39.9,23.2,30.33,NW,307,3.4,4.9,51,0.00,,,0.00,60.67,Weather logger V3.1.,2017-11-18 16:01:00,
2017-11-18 08:06:00,40.5,23.4,30.33,West,272,2.2,2.5,50,0.00,,,0.00,56.78,Weather logger V3.1.,2017-11-18 16:06:00,
2017-11-18 08:11:00,41.0,23.4,30.33,NW,320,2.5,4.9,49,0.00,,,0.00,52.57,Weather logger V3.1.,2017-11-18 16:11:00,
2017-11-18 08:16:00,41.5,23.4,30.33,West,266,0.0,0.0,48,0.00,,,0.00,52.83,Weather logger V3.1.,2017-11-18 16:16:00,
2017-11-18 08:21:00,42.1,23.9,30.33,WSW,255,2.5,2.5,48,0.00,,,0.00,54.72,Weather logger V3.1.,2017-11-18 16:21:00,
2017-11-18 08:26:00,42.4,23.7,30.33,West,279,4.5,4.9,47,0.00,,,0.00,57.03,Weather logger V3.1.,2017-11-18 16:26:00,
2017-11-18 08:31:00,42.8,23.0,30.33,WNW,283,2.9,4.9,45,0.00,,,0.00,59.91,Weather logger V3.1.,2017-11-18 16:31:00,
2017-11-18 08:36:00,43.2,23.4,30.34,WNW,285,4.5,4.9,45,0.00,,,0.00,62.68,Weather logger V3.1.,2017-11-18 16:36:00,
2017-11-18 08:41:00,43.3,23.4,30.34,WNW,292,2.5,2.5,45,0.00,,,0.00,65.81,Weather logger V3.1.,2017-11-18 16:41:00,
2017-11-18 08:47:00,43.7,22.6,30.34,WNW,286,4.0,4.9,43,0.00,,,0.00,69.04,Weather logger V3.1.,2017-11-18 16:47:00,
2017-11-18 08:52:00,44.1,22.5,30.33,West,262,2.5,4.9,42,0.00,,,0.00,71.96,Weather logger V3.1.,2017-11-18 16:52:00,
2017-11-18 08:57:00,44.4,22.3,30.34,West,281,4.5,4.9,41,0.00,,,0.00,75.50,Weather logger V3.1.,2017-11-18 16:57:00,
2017-11-18 09:02:00,44.6,22.3,30.35,WNW,286,1.8,2.5,41,0.00,,,0.00,79.09,Weather logger V3.1.,2017-11-18 17:02:00,
2017-11-18 09:07:00,45.0,23.2,30.34,WNW,288,0.9,2.5,42,0.00,,,0.00,81.88,Weather logger V3.1.,2017-11-18 17:07:00,
2017-11-18 09:12:00,45.5,23.2,30.34,NW,306,1.3,2.5,41,0.00,,,0.00,84.63,Weather logger V3.1.,2017-11-18 17:12:00,
2017-11-18 09:17:00,46.0,21.9,30.35,SW,228,2.5,2.5,38,0.00,,,0.00,87.38,Weather logger V3.1.,2017-11-18 17:17:00,
2017-11-18 09:22:00,46.8,21.2,30.34,SW,236,0.0,0.0,36,0.00,,,0.00,90.09,Weather logger V3.1.,2017-11-18 17:22:00,
2017-11-18 09:27:00,47.7,20.7,30.35,West,273,0.0,0.0,34,0.00,,,0.00,93.00,Weather logger V3.1.,2017-11-18 17:27:00,
2017-11-18 09:32:00,48.4,21.9,30.35,WNW,289,2.5,2.5,35,0.00,,,0.00,95.79,Weather logger V3.1.,2017-11-18 17:32:00,
2017-11-18 09:37:00,49.1,22.6,30.35,WSW,249,0.0,0.0,35,0.00,,,0.00,97.93,Weather logger V3.1.,2017-11-18 17:37:00,
2017-11-18 09:42:00,50.4,19.4,30.34,ESE,122,0.7,2.5,29,0.00,,,0.00,102.20,Weather logger V3.1.,2017-11-18 17:42:00,
2017-11-18 09:47:00,51.4,20.3,30.34,ENE,59,0.7,2.5,29,0.00,,,0.00,104.45,Weather logger V3.1.,2017-11-18 17:47:00,
2017-11-18 09:52:00,52.5,19.6,30.34,East,79,0.0,0.0,27,0.00,,,0.00,107.08,Weather logger V3.1.,2017-11-18 17:52:00,
2017-11-18 09:57:00,53.6,20.5,30.34,NE,56,0.9,2.5,27,0.00,,,0.00,110.28,Weather logger V3.1.,2017-11-18 17:57:00,
2017-11-18 10:03:00,54.3,20.1,30.34,North,5,0.0,0.0,26,0.00,,,0.00,111.88,Weather logger V3.1.,2017-11-18 18:03:00,
2017-11-18 10:08:00,55.2,20.1,30.34,ENE,59,0.0,0.0,25,0.00,,,0.00,114.14,Weather logger V3.1.,2017-11-18 18:08:00,
2017-11-18 10:13:00,56.1,16.7,30.34,NNE,27,2.5,4.9,21,0.00,,,0.00,116.89,Weather logger V3.1.,2017-11-18 18:13:00,
2017-11-18 10:18:00,56.7,17.2,30.33,NE,49,1.3,2.5,21,0.00,,,0.00,119.56,Weather logger V3.1.,2017-11-18 18:18:00,
2017-11-18 10:23:00,56.8,18.5,30.33,NE,46,0.7,2.5,22,0.00,,,0.00,120.95,Weather logger V3.1.,2017-11-18 18:23:00,
2017-11-18 10:28:00,57.0,17.4,30.33,ESE,123,0.0,0.0,21,0.00,,,0.00,123.09,Weather logger V3.1.,2017-11-18 18:28:00,
2017-11-18 10:33:00,57.6,18.0,30.32,SSE,153,2.9,4.9,21,0.00,,,0.00,125.30,Weather logger V3.1.,2017-11-18 18:33:00,
2017-11-18 10:38:00,58.1,14.9,30.33,NNE,14,1.6,2.5,18,0.00,,,0.00,127.31,Weather logger V3.1.,2017-11-18 18:38:00,
2017-11-18 10:43:00,58.1,10.8,30.32,SE,146,0.2,2.5,15,0.00,,,0.00,129.41,Weather logger V3.1.,2017-11-18 18:43:00,
2017-11-18 10:48:00,58.6,18.9,30.32,SE,144,0.2,2.5,21,0.00,,,0.00,132.20,Weather logger V3.1.,2017-11-18 18:48:00,
2017-11-18 10:53:00,59.5,18.5,30.32,ESE,115,1.6,2.5,20,0.00,,,0.00,134.91,Weather logger V3.1.,2017-11-18 18:53:00,
2017-11-18 10:59:00,60.1,21.2,30.32,ESE,115,2.5,4.9,22,0.00,,,0.00,135.03,Weather logger V3.1.,2017-11-18 18:59:00,
2017-11-18 11:04:00,60.1,16.5,30.32,South,173,0.2,2.5,18,0.00,,,0.00,134.87,Weather logger V3.1.,2017-11-18 19:04:00,
2017-11-18 11:09:00,60.1,16.5,30.32,WSW,241,2.2,2.5,18,0.00,,,0.00,136.80,Weather logger V3.1.,2017-11-18 19:09:00,
2017-11-18 11:14:00,59.7,17.4,30.32,SW,230,2.5,4.9,19,0.00,,,0.00,137.94,Weather logger V3.1.,2017-11-18 19:14:00,
2017-11-18 11:19:00,59.2,18.1,30.31,SSE,150,0.9,2.5,20,0.00,,,0.00,139.34,Weather logger V3.1.,2017-11-18 19:19:00,
2017-11-18 11:24:00,58.5,16.3,30.31,WSW,257,0.2,2.5,19,0.00,,,0.00,139.91,Weather logger V3.1.,2017-11-18 19:24:00,
2017-11-18 11:29:00,58.1,16.2,30.31,South,182,3.4,4.9,19,0.00,,,0.00,142.09,Weather logger V3.1.,2017-11-18 19:29:00,
2017-11-18 11:34:00,58.3,16.2,30.30,SSW,212,1.8,2.5,19,0.00,,,0.00,142.66,Weather logger V3.1.,2017-11-18 19:34:00,
2017-11-18 11:39:00,58.1,17.2,30.30,SE,128,2.9,4.9,20,0.00,,,0.00,143.65,Weather logger V3.1.,2017-11-18 19:39:00,
2017-11-18 11:44:00,58.5,15.1,30.30,NE,54,0.0,0.0,18,0.00,,,0.00,144.22,Weather logger V3.1.,2017-11-18 19:44:00,
2017-11-18 11:49:00,59.0,12.9,30.29,SSW,198,0.0,0.0,16,0.00,,,0.00,146.03,Weather logger V3.1.,2017-11-18 19:49:00,
2017-11-18 11:55:00,59.4,15.8,30.29,WSW,240,2.9,4.9,18,0.00,,,0.00,147.47,Weather logger V3.1.,2017-11-18 19:55:00,
2017-11-18 12:00:00,59.2,16.9,30.29,SSW,208,2.2,4.9,19,0.00,,,0.00,146.77,Weather logger V3.1.,2017-11-18 20:00:00,
2017-11-18 12:05:00,59.4,17.1,30.28,SSE,161,2.2,2.5,19,0.00,,,0.00,147.79,Weather logger V3.1.,2017-11-18 20:05:00,
2017-11-18 12:10:00,59.4,18.3,30.28,West,269,4.5,4.9,20,0.00,,,0.00,148.70,Weather logger V3.1.,2017-11-18 20:10:00,
2017-11-18 12:15:00,59.2,16.9,30.28,SW,225,3.4,4.9,19,0.00,,,0.00,149.11,Weather logger V3.1.,2017-11-18 20:15:00,
2017-11-18 12:20:00,59.0,16.9,30.28,ESE,106,3.4,4.9,19,0.00,,,0.00,149.64,Weather logger V3.1.,2017-11-18 20:20:00,
2017-11-18 12:25:00,59.0,16.9,30.27,SSW,209,2.9,4.9,19,0.00,,,0.00,126.17,Weather logger V3.1.,2017-11-18 20:25:00,
2017-11-18 12:30:00,59.5,16.0,30.27,SSW,213,6.0,7.6,18,0.00,,,0.00,104.04,Weather logger V3.1.,2017-11-18 20:30:00,
2017-11-18 12:35:00,59.7,16.2,30.26,NW,318,1.8,2.5,18,0.00,,,0.00,152.06,Weather logger V3.1.,2017-11-18 20:35:00,
2017-11-18 12:40:00,60.1,16.5,30.26,SW,232,0.0,0.0,18,0.00,,,0.00,76.32,Weather logger V3.1.,2017-11-18 20:40:00,
2017-11-18 12:45:00,60.4,16.7,30.25,SSW,197,1.6,2.5,18,0.00,,,0.00,96.16,Weather logger V3.1.,2017-11-18 20:45:00,
2017-11-18 12:50:00,60.8,14.4,30.25,WNW,291,1.3,2.5,16,0.00,,,0.00,82.17,Weather logger V3.1.,2017-11-18 20:50:00,
2017-11-18 12:55:00,61.0,15.8,30.25,West,278,2.2,4.9,17,0.00,,,0.00,82.13,Weather logger V3.1.,2017-11-18 20:55:00,
2017-11-18 13:00:00,60.8,17.1,30.25,West,268,4.0,4.9,18,0.00,,,0.00,77.86,Weather logger V3.1.,2017-11-18 21:00:00,
2017-11-18 13:05:00,60.8,18.3,30.24,WSW,248,2.9,4.9,19,0.00,,,0.00,88.41,Weather logger V3.1.,2017-11-18 21:05:00,
2017-11-18 13:11:00,61.0,18.5,30.24,SW,224,4.0,7.6,19,0.00,,,0.00,94.19,Weather logger V3.1.,2017-11-18 21:11:00,
2017-11-18 13:16:00,60.8,18.3,30.25,SW,236,4.5,4.9,19,0.00,,,0.00,98.09,Weather logger V3.1.,2017-11-18 21:16:00,
2017-11-18 13:21:00,60.8,18.3,30.24,SW,236,0.2,2.5,19,0.00,,,0.00,96.53,Weather logger V3.1.,2017-11-18 21:21:00,
2017-11-18 13:26:00,61.0,17.2,30.25,NW,325,0.7,2.5,18,0.00,,,0.00,91.53,Weather logger V3.1.,2017-11-18 21:26:00,
2017-11-18 13:31:00,61.5,16.3,30.24,South,187,3.4,4.9,17,0.00,,,0.00,86.40,Weather logger V3.1.,2017-11-18 21:31:00,
2017-11-18 13:36:00,61.7,17.8,30.24,SW,222,3.1,4.9,18,0.00,,,0.00,93.41,Weather logger V3.1.,2017-11-18 21:36:00,
2017-11-18 13:41:00,61.7,17.8,30.24,NNW,339,0.7,2.5,18,0.00,,,0.00,139.09,Weather logger V3.1.,2017-11-18 21:41:00,
2017-11-18 13:46:00,62.1,18.1,30.24,WSW,240,4.0,4.9,18,0.00,,,0.00,153.01,Weather logger V3.1.,2017-11-18 21:46:00,
2017-11-18 13:51:00,62.2,19.6,30.24,NNW,328,0.7,2.5,19,0.00,,,0.00,157.52,Weather logger V3.1.,2017-11-18 21:51:00,
2017-11-18 13:56:00,62.2,16.9,30.24,WSW,249,3.1,4.9,17,0.00,,,0.00,157.15,Weather logger V3.1.,2017-11-18 21:56:00,
2017-11-18 14:01:00,62.1,19.4,30.24,West,279,2.5,4.9,19,0.00,,,0.00,135.48,Weather logger V3.1.,2017-11-18 22:01:00,
2017-11-18 14:06:00,62.2,18.3,30.23,SW,225,0.9,2.5,18,0.00,,,0.00,102.20,Weather logger V3.1.,2017-11-18 22:06:00,
2017-11-18 14:11:00,62.2,19.6,30.24,WNW,283,2.5,2.5,19,0.00,,,0.00,168.03,Weather logger V3.1.,2017-11-18 22:11:00,
2017-11-18 14:16:00,62.1,19.4,30.23,West,268,0.0,0.0,19,0.00,,,0.00,163.72,Weather logger V3.1.,2017-11-18 22:16:00,
2017-11-18 14:21:00,62.4,19.6,30.23,West,265,0.7,2.5,19,0.00,,,0.00,126.54,Weather logger V3.1.,2017-11-18 22:21:00,
2017-11-18 14:27:00,62.2,19.6,30.23,WNW,299,1.6,2.5,19,0.00,,,0.00,87.05,Weather logger V3.1.,2017-11-18 22:27:00,
2017-11-18 14:32:00,62.2,20.7,30.23,SW,216,2.2,2.5,20,0.00,,,0.00,162.73,Weather logger V3.1.,2017-11-18 22:32:00,
2017-11-18 14:37:00,62.2,20.7,30.22,SW,218,3.8,4.9,20,0.00,,,0.00,168.97,Weather logger V3.1.,2017-11-18 22:37:00,
2017-11-18 14:42:00,62.2,18.3,30.22,WSW,241,0.9,2.5,18,0.00,,,0.00,181.20,Weather logger V3.1.,2017-11-18 22:42:00,
2017-11-18 14:47:00,62.4,18.3,30.22,NNW,341,1.3,2.5,18,0.00,,,0.00,153.01,Weather logger V3.1.,2017-11-18 22:47:00,
2017-11-18 14:52:00,62.6,18.5,30.23,NW,308,4.7,4.9,18,0.00,,,0.00,152.88,Weather logger V3.1.,2017-11-18 22:52:00,
2017-11-18 14:57:00,62.6,21.0,30.22,WSW,255,2.5,2.5,20,0.00,,,0.00,107.04,Weather logger V3.1.,2017-11-18 22:57:00,
2017-11-18 15:02:00,62.6,19.8,30.23,West,259,0.2,2.5,19,0.00,,,0.00,107.74,Weather logger V3.1.,2017-11-18 23:02:00,
2017-11-18 15:07:00,62.6,19.8,30.22,NW,320,1.8,2.5,19,0.00,,,0.00,102.73,Weather logger V3.1.,2017-11-18 23:07:00,
2017-11-18 15:12:00,62.6,19.8,30.22,WNW,301,1.6,2.5,19,0.00,,,0.00,151.28,Weather logger V3.1.,2017-11-18 23:12:00,
2017-11-18 15:17:00,62.4,19.6,30.22,West,269,0.7,2.5,19,0.00,,,0.00,112.09,Weather logger V3.1.,2017-11-18 23:17:00,
2017-11-18 15:22:00,62.2,18.3,30.22,West,280,0.0,0.0,18,0.00,,,0.00,112.54,Weather logger V3.1.,2017-11-18 23:22:00,
2017-11-18 15:27:00,62.2,19.6,30.21,WNW,301,1.8,2.5,19,0.00,,,0.00,123.05,Weather logger V3.1.,2017-11-18 23:27:00,
2017-11-18 15:32:00,62.2,19.6,30.22,West,279,0.0,0.0,19,0.00,,,0.00,103.92,Weather logger V3.1.,2017-11-18 23:32:00,
2017-11-18 15:37:00,62.4,18.3,30.22,West,279,0.0,0.0,18,0.00,,,0.00,80.08,Weather logger V3.1.,2017-11-18 23:37:00,
2017-11-18 15:43:00,62.2,20.7,30.22,West,278,0.0,0.0,20,0.00,,,0.00,70.78,Weather logger V3.1.,2017-11-18 23:43:00,
2017-11-18 15:48:00,62.1,19.4,30.22,WNW,299,0.7,2.5,19,0.00,,,0.00,59.85,Weather logger V3.1.,2017-11-18 23:48:00,
2017-11-18 15:53:00,61.9,20.5,30.22,West,273,0.0,0.0,20,0.00,,,0.00,53.39,Weather logger V3.1.,2017-11-18 23:53:00,
2017-11-18 15:58:00,61.3,21.0,30.22,West,275,0.0,0.0,21,0.00,,,0.00,47.08,Weather logger V3.1.,2017-11-18 23:58:00,
2017-11-18 16:03:00,61.0,20.8,30.22,WNW,283,0.0,0.0,21,0.00,,,0.00,76.42,Weather logger V3.1.,2017-11-19 00:03:00,
2017-11-18 16:08:00,60.6,20.5,30.22,WNW,283,0.0,0.0,21,0.00,,,0.00,45.95,Weather logger V3.1.,2017-11-19 00:08:00,
2017-11-18 16:13:00,59.9,19.9,30.22,WNW,283,0.0,0.0,21,0.00,,,0.00,45.90,Weather logger V3.1.,2017-11-19 00:13:00,
2017-11-18 16:18:00,59.2,23.4,30.22,WNW,283,0.0,0.0,25,0.00,,,0.00,29.28,Weather logger V3.1.,2017-11-19 00:18:00,
2017-11-18 16:23:00,58.5,24.6,30.22,WNW,283,0.0,0.0,27,0.00,,,0.00,25.38,Weather logger V3.1.,2017-11-19 00:23:00,
2017-11-18 16:28:00,57.7,26.6,30.22,WNW,283,0.0,0.0,30,0.00,,,0.00,20.30,Weather logger V3.1.,2017-11-19 00:28:00,
2017-11-18 16:33:00,56.8,28.0,30.22,WNW,282,0.0,0.0,33,0.00,,,0.00,16.35,Weather logger V3.1.,2017-11-19 00:33:00,
2017-11-18 16:35:00,56.7,30.0,30.22,WNW,282,0.0,0.0,36,0.00,,,0.00,10.16,Weather logger V3.1.,2017-11-19 00:35:00,
2017-11-18 16:40:00,55.8,33.6,30.21,WNW,282,0.0,0.0,43,0.00,,,0.00,4.04,Weather logger V3.1.,2017-11-19 00:40:00,
2017-11-18 16:45:00,54.9,36.1,30.21,WNW,282,0.0,0.0,49,0.00,,,0.00,0.00,Weather logger V3.1.,2017-11-19 00:45:00,
2017-11-18 16:50:00,54.0,35.8,30.21,WNW,282,0.0,0.0,50,0.00,,,0.00,0.00,Weather logger V3.1.,2017-11-19 00:50:00,
2017-11-18 16:51:00,53.8,36.1,30.21,WNW,282,0.0,0.0,51,0.00,,,0.00,0.00,Weather logger V3.1.,2017-11-19 00:51:00,
2017-11-18 16:55:00,53.1,36.0,30.21,WNW,282,0.0,0.0,52,0.00,,,0.00,0.00,Weather logger V3.1.,2017-11-19 00:55:00,
2017-11-18 17:00:00,52.2,36.5,30.21,WNW,282,0.0,0.0,55,0.00,,,0.00,0.00,Weather logger V3.1.,2017-11-19 01:00:00,
2017-11-18 17:05:00,51.4,37.2,30.21,WNW,282,0.0,0.0,58,0.00,,,0.00,0.00,Weather logger V3.1.,2017-11-19 01:05:00,
2017-11-18 17:10:00,50.7,36.9,30.21,WNW,282,0.0,0.0,59,0.00,,,0.00,0.00,Weather logger V3.1.,2017-11-19 01:10:00,
2017-11-18 17:15:00,50.2,37.2,30.21,WNW,282,0.0,0.0,61,0.00,,,0.00,0.00,Weather logger V3.1.,2017-11-19 01:15:00,
2017-11-18 17:20:00,49.5,37.0,30.21,WNW,282,0.0,0.0,62,0.00,,,0.00,0.00,Weather logger V3.1.,2017-11-19 01:20:00,